Theta_e
278 279 279 279 279 279 279 279 279 279 279 279 278 278 278 278 278 278 278 278 278 278 278 278 277 277 276 275 275 275 276 276 276 276 276 276 276 276 276 276 276 276 276 276 276 276 277 277 277 278 279 279 279 278 278 278 278 278 278 278 279 278 278 278 278 278 278 279 280
278 278 278 278 278 279 278 278 278 278 278 278 278 278 278 278 277 277 277 277 277 277 277 278 276 275 275 275 275 275 275 275 275 275 275 275 275 275 275 275 275 275 275 275 275 276 276 276 276 277 278 279 278 278 277 278 277 277 277 277 278 278 278 278 278 278 278 278 279
277 277 277 277 277 277 277 277 277 277 277 277 277 277 277 277 277 277 277 276 276 276 276 277 275 275 275 275 275 275 275 275 275 275 275 275 275 275 275 275 275 275 275 275 275 275 276 275 276 277 278 278 277 277 277 277 277 277 277 277 278 279 279 280 279 279 279 279 279
276 276 276 276 276 276 276 276 276 276 276 276 276 276 276 277 277 276 276 276 275 275 276 275 275 275 275 275 274 274 274 275 275 274 274 274 274 274 274 274 274 274 274 275 274 274 275 275 276 277 277 276 276 276 277 278 277 277 278 278 278 279 279 280 279 280 280 280 279
276 276 275 275 275 275 275 275 275 275 275 276 276 276 276 276 276 276 275 275 275 275 275 274 275 275 275 274 274 274 274 274 275 274 274 274 274 274 274 274 274 274 274 274 274 275 275 275 276 277 276 276 276 277 277 276 276 277 277 278 279 279 279 279 280 280 280 280 280
275 275 275 275 274 274 275 275 274 274 274 275 275 274 275 275 275 275 275 275 274 274 274 274 274 274 274 273 273 273 273 273 273 273 273 273 273 273 273 273 273 274 274 274 274 275 275 275 276 276 276 277 276 276 276 276 277 277 278 279 280 280 281 281 281 280 280 280 279
274 274 274 274 274 274 274 274 274 274 274 274 273 273 273 274 273 273 273 273 274 274 274 275 274 273 273 273 273 273 273 273 273 272 272 273 273 273 273 273 273 273 274 274 274 275 275 274 276 276 277 277 277 277 277 278 278 279 279 279 280 281 281 281 280 280 279 278 278
274 274 273 273 273 273 273 273 273 273 274 274 273 273 272 273 272 272 272 273 273 273 273 274 273 272 272 272 272 272 272 272 272 272 272 273 273 273 273 273 273 274 274 275 275 275 275 275 276 276 276 277 277 277 277 277 278 278 278 278 279 280 280 280 279 279 279 278 278
274 273 273 273 273 273 272 272 272 272 273 272 272 272 272 273 272 272 272 272 273 273 273 273 272 272 272 272 272 272 272 272 272 272 273 273 273 273 274 275 275 276 276 277 277 276 276 276 276 276 276 276 277 277 277 277 276 276 277 277 277 278 278 279 279 279 279 279 279
273 273 273 272 272 272 272 272 272 272 272 271 271 271 272 273 272 272 272 273 272 272 272 272 272 272 272 272 272 272 273 273 274 274 274 274 275 275 275 276 277 277 277 278 277 276 276 275 275 275 275 276 276 276 276 276 276 276 277 277 278 278 278 279 279 280 280 280 280
272 272 272 272 272 272 272 271 271 271 271 271 271 271 271 272 271 271 272 272 272 271 271 272 272 272 272 272 273 273 274 276 276 276 276 276 276 276 276 277 277 277 277 277 277 276 276 276 275 275 275 276 276 276 276 276 276 276 277 278 278 278 278 279 280 281 281 281 281
271 271 271 271 271 271 271 271 271 271 270 270 270 270 270 271 271 271 271 271 271 271 272 272 272 273 273 273 274 275 276 276 276 276 276 276 275 276 276 276 276 277 277 277 277 277 276 276 276 276 276 276 276 276 276 276 276 276 277 277 278 278 279 280 280 280 280 280 279
271 271 271 270 270 270 270 270 270 270 270 270 270 270 270 271 271 271 271 271 271 272 272 273 274 274 274 274 274 275 276 276 276 276 276 275 275 275 275 275 275 276 276 276 276 277 277 277 277 277 276 277 277 277 277 276 276 276 276 277 277 278 278 279 279 279 279 279 278
270 270 270 270 270 270 270 269 270 270 270 270 270 270 270 271 271 271 271 271 272 272 272 273 273 273 274 274 274 275 275 276 275 275 274 274 274 274 274 274 274 275 275 276 276 277 277 277 277 277 277 277 277 277 277 277 277 276 277 277 278 278 278 278 278 278 278 277 277
270 269 269 269 269 270 270 269 270 270 270 270 270 270 271 271 271 272 272 272 272 272 272 272 272 272 273 274 274 274 275 275 274 273 273 272 272 273 273 273 273 274 274 275 276 276 276 276 276 277 277 276 277 277 278 278 278 278 278 278 278 278 278 278 277 277 277 276 276
269 269 269 269 269 270 270 270 271 271 270 270 270 270 270 271 271 272 272 271 271 271 271 271 271 272 272 273 274 274 273 273 273 272 271 271 272 272 272 272 273 273 274 275 275 275 276 276 276 276 276 276 276 276 277 277 277 277 277 277 277 277 277 277 276 276 276 276 276
269 269 269 269 269 269 269 270 270 270 270 270 270 270 270 270 271 272 272 271 271 270 270 270 271 271 272 272 273 273 272 272 271 271 271 271 272 272 272 272 273 273 274 275 275 275 275 276 276 276 276 275 275 275 275 275 276 276 276 276 276 276 276 276 276 276 276 276 276
269 269 269 269 269 269 269 269 269 269 269 269 269 269 269 270 270 271 271 271 270 270 270 270 270 271 271 271 272 272 272 271 271 271 272 272 272 272 273 273 273 274 275 275 275 275 275 275 275 275 275 275 275 275 275 275 275 276 276 277 277 277 276 276 276 277 276 276 276
268 268 268 269 269 269 269 269 269 269 269 269 269 269 269 269 270 270 270 270 270 270 270 270 270 270 271 271 271 271 272 272 272 272 272 272 273 273 273 273 274 274 274 275 275 275 275 275 275 275 275 276 276 276 276 276 276 277 278 278 278 278 278 278 278 278 278 279 279
268 268 268 268 268 268 268 269 269 268 268 269 268 268 268 269 269 269 269 269 270 270 270 270 270 270 270 270 270 271 271 272 272 272 272 273 273 273 273 273 274 274 273 274 274 274 274 274 274 275 275 276 276 276 277 277 277 278 278 278 278 278 278 278 278 278 278 278 278
267 268 268 268 268 268 268 269 268 268 268 268 268 268 268 268 269 269 269 269 270 270 270 269 269 269 270 270 270 270 271 272 272 272 272 272 272 272 272 273 272 272 272 272 272 272 273 273 273 273 274 275 275 275 276 276 276 276 276 276 276 276 276 276 276 276 276 277 277
267 267 267 268 268 268 269 269 268 268 268 268 268 268 268 268 268 269 269 270 270 270 269 269 269 269 269 269 270 270 270 271 271 271 271 271 271 271 271 272 271 271 271 270 271 271 271 272 272 273 273 273 274 274 274 275 275 275 275 275 275 275 275 275 275 275 276 276 277
267 267 267 267 268 268 269 269 268 268 268 267 268 268 268 268 268 269 269 269 269 269 269 269 269 269 269 269 270 270 270 270 270 270 270 270 270 270 270 270 270 270 270 270 270 271 271 272 272 273 273 273 273 273 274 274 274 275 275 275 275 274 274 274 275 275 275 276 276
267 267 267 267 268 268 268 268 267 267 267 267 267 268 268 268 268 268 269 269 269 269 269 269 270 270 270 270 270 270 270 269 269 269 269 269 269 269 269 270 270 270 270 270 271 272 272 272 273 273 273 273 273 273 273 274 274 274 274 274 274 274 274 274 274 274 275 275 275
267 267 267 268 268 268 267 267 267 267 267 267 268 268 268 268 268 268 268 268 268 269 269 269 269 270 270 270 270 270 269 269 269 268 269 269 269 269 269 270 270 270 271 271 273 274 274 274 274 273 273 273 273 273 273 274 274 274 274 274 274 274 274 274 274 275 275 275 275
268 268 268 269 268 267 267 266 266 267 267 267 267 268 268 268 268 268 268 268 268 269 269 269 270 271 271 270 269 269 269 269 269 268 268 268 268 269 270 270 271 271 271 272 273 274 275 275 275 275 274 273 273 273 273 273 274 274 274 274 274 274 274 274 274 274 274 274 274
270 270 268 268 267 267 266 266 266 266 267 267 267 267 267 268 268 268 267 267 268 269 269 270 271 272 272 270 269 268 268 268 268 268 268 268 268 269 270 270 271 271 272 273 274 274 275 275 275 275 275 274 273 273 273 273 274 274 274 274 274 274 274 273 273 273 273 273 274
272 270 268 267 267 267 266 266 266 266 266 267 267 267 268 268 267 267 268 268 268 268 269 270 271 271 271 269 269 268 268 268 268 268 269 269 270 270 270 270 271 271 272 273 274 274 275 275 275 276 276 275 274 274 274 274 274 274 274 274 274 273 273 273 273 273 273 273 273
271 270 268 266 266 267 267 266 266 266 266 267 267 268 268 268 268 268 268 268 268 268 269 270 271 270 270 269 269 269 268 268 268 268 269 270 270 270 270 270 270 271 272 274 274 274 275 275 275 276 276 276 275 275 275 275 275 274 274 274 274 274 273 273 272 272 272 272 272
272 270 267 266 266 266 266 266 266 266 267 268 268 268 268 268 268 268 268 268 268 268 269 270 270 269 269 269 269 269 269 269 269 269 270 270 270 270 270 270 270 271 272 273 274 274 275 275 275 276 276 276 275 275 275 275 275 274 274 274 274 274 273 273 273 273 272 273 272
273 270 267 265 266 266 266 266 266 267 268 268 268 268 268 267 267 268 267 267 268 269 270 270 270 269 268 269 269 269 269 269 269 270 270 270 270 270 270 270 270 270 272 273 274 275 275 275 276 276 276 276 275 275 274 274 274 274 274 273 274 273 273 273 273 273 273 273 273
272 271 268 265 265 266 266 266 267 268 268 268 269 269 268 268 268 268 268 268 268 269 269 270 269 269 268 269 269 269 269 269 269 270 270 270 269 269 269 269 269 270 271 273 274 275 275 275 276 276 276 276 275 275 274 274 274 274 273 273 273 273 273 273 274 274 274 274 274
272 271 268 265 265 266 267 267 267 268 269 269 269 269 268 268 269 268 268 268 269 269 269 270 269 269 268 268 268 268 269 269 270 270 270 269 269 269 269 269 269 270 272 274 274 275 275 275 276 276 276 276 275 275 274 274 274 274 274 273 273 274 274 274 274 274 274 274 275
272 271 268 266 266 266 266 267 268 269 270 270 269 269 269 268 268 268 268 268 269 269 270 270 270 269 269 269 268 269 269 269 269 269 269 269 269 268 268 268 268 270 273 274 274 275 275 275 276 276 276 276 275 275 274 274 274 273 273 273 274 274 274 274 274 274 274 274 274
272 270 268 266 266 266 266 266 268 269 270 269 268 268 268 268 268 267 268 269 269 269 270 270 270 269 269 269 269 269 269 269 269 268 268 268 268 268 268 268 269 271 273 274 274 275 275 275 276 276 276 276 275 274 274 274 273 273 273 274 274 274 274 274 274 274 274 274 274
271 271 269 266 266 266 266 266 267 269 269 268 267 267 267 267 267 267 268 269 269 269 270 270 269 269 269 269 269 269 269 268 268 268 268 268 268 268 268 268 269 271 273 274 274 275 275 275 276 276 276 275 274 274 274 274 274 274 274 274 274 274 274 274 274 274 275 275 275
271 270 268 266 266 266 266 266 267 267 267 266 266 266 266 266 267 267 268 269 268 269 269 269 269 269 269 269 269 269 269 269 268 268 268 268 268 268 268 268 269 270 272 273 274 274 275 275 276 276 276 275 274 274 274 274 274 273 273 273 273 273 274 274 274 274 274 274 274
270 269 267 266 266 266 265 265 266 266 265 265 265 266 266 266 266 267 268 269 268 268 269 269 269 269 269 269 269 269 268 269 268 268 268 267 268 268 268 269 269 270 271 273 274 274 275 275 276 276 275 274 274 274 274 273 273 273 272 272 272 272 272 273 273 272 272 273 273
268 266 265 265 266 265 265 264 264 264 264 265 265 265 265 266 266 267 268 269 268 268 269 270 270 269 269 269 269 269 268 268 269 268 268 268 268 269 269 269 269 269 271 273 274 274 275 275 276 276 276 275 274 274 273 272 272 271 271 271 271 271 271 272 272 272 272 272 274
265 264 264 265 265 265 264 263 263 264 264 264 264 265 265 266 267 268 268 268 268 268 269 270 269 269 269 269 269 269 268 268 268 268 268 268 268 270 271 269 269 269 270 272 273 274 275 275 276 276 276 275 274 273 272 271 270 270 270 270 270 271 271 272 272 272 272 273 274
263 263 264 265 265 264 263 262 263 263 264 264 264 265 266 267 267 267 267 268 268 268 269 269 269 269 269 269 269 268 268 268 268 268 268 268 269 270 270 269 269 269 270 272 273 274 275 275 276 276 276 275 274 272 271 271 270 270 270 270 271 271 271 271 272 272 272 272 273
Wind_Speed
7 6 5 4 4 4 4 4 4 3 3 2 2 2 2 2 3 3 3 3 3 4 3 4 4 4 4 5 6 6 6 6 6 6 6 5 5 5 5 5 5 5 5 5 4 4 4 4 4 3 3 2 2 2 2 2 2 3 3 4 4 4 4 5 5 5 6 6 5
7 6 5 5 4 4 3 3 3 3 2 2 2 2 2 3 3 3 3 3 3 3 3 3 3 4 5 6 6 6 6 6 6 6 5 5 5 5 5 5 5 4 4 4 4 4 4 4 4 3 3 3 3 3 3 3 3 4 5 6 4 4 4 5 5 6 6 6 5
6 5 5 5 4 4 3 3 2 2 2 2 2 2 3 3 4 4 4 4 3 4 4 4 4 5 5 6 6 6 5 5 6 5 5 5 5 5 5 5 5 5 5 4 4 4 4 4 4 4 4 3 3 3 4 3 3 4 5 6 4 4 4 5 4 4 4 4 4
6 5 5 5 4 4 3 2 2 2 2 2 3 3 4 4 4 4 4 4 4 4 5 4 4 5 5 6 6 6 6 6 6 5 5 5 5 6 6 5 6 6 5 5 5 5 5 5 4 4 4 4 4 4 4 4 4 4 4 4 4 4 4 4 4 3 4 4 4
5 5 4 4 3 3 2 2 2 2 2 3 4 4 5 5 5 5 5 5 5 5 5 5 5 5 5 6 6 6 6 6 6 6 5 6 6 6 6 6 6 6 6 5 5 6 6 5 4 4 4 4 4 4 4 5 4 4 4 4 3 4 4 4 4 4 4 4 4
4 4 3 3 3 2 2 2 2 3 3 4 5 6 6 5 5 5 5 5 5 5 5 5 5 5 5 6 6 6 6 6 5 5 5 6 6 6 6 6 6 6 6 6 6 6 6 5 4 4 4 4 4 4 4 5 4 4 4 4 4 4 4 5 4 4 4 5 5
3 3 3 3 3 3 3 3 3 4 4 5 6 7 6 6 6 6 5 5 4 5 5 5 5 5 5 6 6 6 5 5 5 5 5 6 6 6 6 6 6 6 6 6 6 6 6 5 5 5 5 5 4 5 5 5 5 6 6 6 6 6 5 5 3 3 4 5 6
4 4 4 4 4 4 4 4 5 5 6 6 7 7 7 7 6 6 6 5 5 5 5 5 5 5 5 5 5 5 5 5 5 5 5 5 6 6 6 6 6 6 6 6 6 6 6 5 5 5 5 5 5 5 6 6 7 7 8 8 7 7 6 5 4 5 6 7 7
5 5 5 5 6 6 6 6 6 6 6 7 7 7 7 7 7 6 6 5 5 5 4 4 5 5 5 6 6 5 5 5 5 5 5 5 6 6 6 6 7 7 7 7 7 8 7 6 5 5 5 5 5 6 6 7 8 8 8 8 7 7 6 6 6 7 8 8 8
6 6 6 7 7 7 6 6 6 7 7 7 7 7 7 7 7 6 5 5 5 5 5 5 5 5 6 6 6 6 5 6 6 7 7 7 8 8 8 8 9 9 9 8 7 7 7 6 5 5 6 5 6 7 8 8 8 8 8 7 7 8 9 9 9 9 9 9 9
7 7 6 6 7 7 7 7 6 6 6 7 7 7 7 7 6 6 5 5 5 6 6 5 6 6 6 6 6 6 7 7 8 9 9 10 10 10 9 9 9 9 9 9 8 7 6 5 6 7 7 7 7 8 8 8 8 9 9 8 9 10 11 11 9 7 6 6 6
7 6 6 6 6 6 6 6 5 5 6 6 6 6 6 6 6 6 6 6 6 6 6 6 6 7 7 6 7 8 8 8 9 9 10 10 10 10 9 10 10 10 10 10 8 7 6 6 7 8 9 9 8 8 8 8 8 9 9 10 10 11 12 12 9 7 5 6 7
6 6 6 6 6 6 6 6 5 5 6 6 6 6 6 6 6 6 6 7 7 7 7 7 8 7 7 7 8 8 8 8 9 9 9 10 10 10 10 9 10 10 10 9 8 8 7 8 9 10 10 10 9 8 9 9 9 9 9 10 11 11 12 12 10 8 8 8 8
6 6 6 6 6 6 6 6 5 5 6 7 7 6 6 6 6 6 6 7 7 7 7 8 7 7 7 7 7 8 8 8 8 9 9 9 9 9 9 9 9 9 9 9 9 10 10 10 11 11 11 11 10 10 10 10 9 9 9 10 11 12 11 10 9 8 8 9 10
6 6 6 6 6 6 6 6 6 6 6 7 7 6 6 6 6 6 6 7 7 7 7 7 7 7 7 8 8 8 8 8 8 8 8 8 9 9 9 9 9 9 9 9 10 10 11 11 11 12 12 12 12 12 11 11 10 10 10 11 12 12 11 10 9 9 10 11 12
6 6 7 7 7 7 7 6 6 6 6 7 7 6 6 6 6 6 7 7 6 6 6 7 7 7 7 7 8 8 7 7 7 7 8 8 8 9 9 9 9 9 10 10 10 10 10 11 11 11 12 12 12 12 12 12 12 12 12 12 12 12 12 12 12 12 12 13 13
7 7 7 7 8 8 7 7 6 6 6 6 6 6 6 6 6 6 7 7 6 6 7 7 7 7 7 7 7 7 7 7 7 7 7 8 8 9 9 9 9 9 10 10 10 10 10 10 10 11 11 12 12 12 12 12 12 12 12 12 12 12 13 13 13 13 13 13 14
7 7 7 7 8 8 7 7 6 6 6 6 6 6 5 6 6 6 6 6 6 7 7 7 7 7 7 7 7 6 6 6 6 7 7 7 8 8 8 8 9 9 9 9 10 10 10 10 10 10 10 11 11 11 11 11 11 12 12 12 12 12 12 13 13 13 13 13 14
6 7 7 7 7 7 7 7 6 6 6 5 5 5 5 6 6 6 6 6 6 7 7 7 7 7 7 7 7 6 6 6 6 7 7 7 7 8 8 8 8 9 9 10 10 10 10 10 10 10 11 10 10 10 11 11 11 11 11 10 10 10 10 11 10 9 9 9 9
6 6 6 6 6 6 6 6 6 5 5 5 5 6 6 6 6 6 6 6 7 7 7 7 7 7 7 6 6 6 5 5 6 7 7 7 8 8 8 9 9 9 9 10 10 11 11 11 11 11 11 12 12 11 11 10 10 9 9 8 8 8 9 9 9 8 8 8 8
6 6 5 5 5 5 5 5 5 5 5 5 6 6 6 6 6 6 6 6 7 7 7 7 7 7 7 6 6 6 5 5 6 7 7 8 8 8 9 9 9 9 9 9 10 10 10 10 11 11 11 12 12 12 12 11 11 10 10 8 7 7 8 9 10 9 9 8 8
5 4 4 4 4 4 5 5 5 5 5 5 5 5 5 5 6 6 6 6 7 7 7 7 7 6 6 6 6 5 5 5 6 6 7 7 8 8 8 8 8 8 8 8 9 9 10 10 10 10 11 11 11 11 11 11 11 11 10 9 8 8 8 9 9 10 10 9 9
4 4 4 3 4 4 5 5 5 5 5 5 5 5 5 6 6 6 6 6 6 6 6 6 6 6 6 5 5 5 6 6 6 7 7 7 7 8 8 8 8 8 8 8 8 9 9 10 10 10 10 10 11 11 12 12 12 12 11 11 9 9 8 8 9 9 10 10 9
5 4 4 3 4 5 5 5 5 5 6 6 6 6 5 6 6 6 6 6 6 7 7 6 6 6 5 4 4 5 6 7 7 7 7 7 7 8 8 7 7 7 7 7 9 10 11 10 10 10 10 10 10 11 11 12 12 12 12 12 11 10 9 8 8 9 9 9 8
5 5 4 4 5 5 5 5 6 6 6 5 5 5 5 5 6 6 6 6 6 7 7 7 6 5 4 4 5 6 6 7 7 8 8 8 8 7 7 7 7 7 7 8 13 16 18 16 14 12 10 10 10 10 11 11 12 12 12 12 12 11 10 10 9 9 9 9 9
5 5 4 5 5 5 6 6 5 5 5 5 5 5 5 5 5 5 6 6 6 7 7 7 6 5 5 5 5 6 6 6 7 7 8 8 8 8 8 8 7 7 8 11 16 19 21 21 20 17 14 11 10 10 10 11 11 12 12 13 12 12 11 11 10 9 9 9 10
5 5 4 5 5 5 5 5 5 5 5 5 5 5 5 5 5 5 6 6 6 6 6 6 6 7 6 5 6 7 7 7 7 7 8 8 9 9 10 9 8 7 9 14 18 20 21 21 22 21 18 13 11 10 10 10 11 11 12 12 11 11 11 11 10 10 9 9 10
5 5 4 5 5 5 5 5 5 5 5 5 5 5 5 5 6 6 6 6 6 6 6 6 7 6 5 5 6 7 7 7 7 7 7 8 10 10 11 10 9 9 12 17 20 21 22 22 22 22 20 17 13 11 11 11 11 11 10 10 10 10 9 9 9 9 10 10 10
6 5 4 4 5 5 5 5 5 5 5 5 5 5 5 6 6 6 6 6 6 6 5 6 6 5 5 6 7 7 7 7 7 7 8 9 11 11 11 11 11 12 15 20 21 21 22 22 22 22 22 21 14 10 9 9 9 9 9 8 8 8 8 8 8 9 9 10 10
6 5 4 4 5 5 5 5 5 5 5 4 5 5 6 6 6 6 6 6 6 6 6 6 6 6 6 7 7 7 7 7 7 8 9 11 11 12 12 12 12 13 15 20 21 22 22 22 22 22 22 22 17 12 9 8 8 8 8 8 8 9 9 9 9 10 10 10 11
7 5 4 4 5 5 5 5 4 5 5 5 5 6 6 6 6 6 6 6 5 6 6 7 7 7 7 7 7 7 8 8 8 9 10 11 12 12 13 13 13 13 15 20 21 22 22 22 22 22 22 22 17 12 9 8 8 8 8 9 10 10 10 10 10 11 11 12 12
7 5 4 4 5 5 5 5 5 5 5 6 6 6 6 6 6 6 6 6 6 6 7 8 8 8 8 8 8 8 8 8 9 10 11 11 11 12 12 12 12 13 16 20 22 22 22 22 22 22 22 22 17 13 10 9 9 9 9 10 11 12 12 11 11 11 12 13 13
7 6 4 4 5 5 5 5 5 5 6 6 7 7 6 6 6 6 6 6 6 6 7 9 9 9 8 9 9 9 9 9 10 11 11 11 11 12 12 11 10 13 16 21 22 22 22 22 22 22 22 22 17 13 10 10 9 9 9 10 11 12 13 13 12 12 12 13 12
8 6 5 4 5 5 5 5 5 6 7 7 7 7 7 7 7 7 6 6 5 6 7 8 8 8 8 7 8 9 10 9 10 10 11 11 11 12 12 11 9 12 17 21 22 22 22 22 22 22 22 21 15 11 10 10 9 10 10 11 12 12 12 13 13 12 12 12 11
8 7 5 5 5 5 5 5 6 7 7 7 7 7 7 7 7 7 6 6 6 6 6 7 7 7 7 7 7 9 10 10 10 10 10 11 11 12 12 12 11 14 19 22 22 22 22 22 22 22 22 19 13 10 9 11 11 11 12 12 12 12 12 11 11 11 11 11 11
8 7 6 5 5 6 6 6 6 7 7 7 7 7 7 6 6 6 6 6 6 7 8 8 7 7 7 8 8 8 9 10 10 10 10 11 11 12 12 12 12 15 18 21 21 22 22 22 22 22 21 16 11 9 9 9 9 10 11 11 10 10 10 9 9 9 9 8 9
8 7 6 5 6 6 6 6 6 7 7 7 6 6 7 7 6 6 6 6 6 7 8 8 8 8 8 9 9 8 8 10 10 10 11 11 11 12 12 13 13 14 17 20 21 22 22 22 23 22 20 14 10 9 9 8 7 7 8 8 8 9 8 8 8 8 8 8 8
8 7 6 5 6 6 6 6 6 6 7 7 6 6 6 6 5 5 6 6 6 7 9 9 9 8 9 9 9 9 9 10 10 11 11 11 11 12 12 13 13 13 15 18 21 22 22 22 23 22 19 14 11 9 7 6 6 7 7 8 8 8 8 7 7 7 8 9 11
7 6 5 5 6 6 6 6 6 6 6 6 6 6 6 5 5 5 6 5 5 6 8 9 9 9 9 9 9 9 9 10 10 11 11 11 12 13 13 13 12 13 14 18 21 22 22 22 23 22 20 15 11 8 6 6 7 8 8 8 8 8 8 8 7 7 8 9 13
5 5 5 5 6 6 6 6 6 5 5 5 6 6 6 5 5 5 6 6 5 6 7 8 9 9 9 9 9 9 10 10 10 11 11 11 12 14 15 12 12 12 15 18 21 22 23 23 23 23 20 14 9 7 6 7 8 9 9 8 8 8 7 7 6 6 6 8 10
5 5 5 6 6 5 5 5 5 5 5 5 5 5 5 5 5 5 5 5 6 6 6 7 8 9 9 9 9 9 9 10 11 11 11 11 12 13 13 11 11 12 14 16 20 22 23 23 23 22 20 14 9 7 7 7 8 9 10 9 8 7 6 6 6 6 6 7 7
Wind_Direction
45 43 43 43 47 53 55 53 49 47 47 49 45 42 44 51 48 41 34 28 29 27 25 26 24 18 13 11 12 12 10 8 7 6 5 4 360 356 354 353 353 353 352 351 350 350 350 349 341 332 321 309 301 295 290 287 280 273 267 264 262 259 254 249 248 244 239 237 239
48 47 46 45 48 53 57 56 49 46 45 49 49 46 45 48 44 38 31 27 25 23 20 20 17 13 10 8 9 9 6 3 1 360 358 356 351 349 349 348 348 349 349 348 346 345 344 342 335 325 316 308 306 301 295 285 278 275 273 268 265 260 255 252 248 242 238 237 236
49 48 48 47 47 50 56 58 52 47 44 47 46 46 44 43 39 33 27 22 18 17 17 14 10 8 7 4 4 3 1 357 355 353 351 347 343 343 343 343 344 344 345 344 342 340 338 335 329 322 316 312 309 302 295 286 276 272 271 268 264 260 258 259 252 245 241 241 236
47 47 48 49 48 50 54 59 52 46 43 44 41 40 40 38 34 28 22 15 15 15 13 8 4 4 3 1 358 356 353 351 349 347 344 341 338 337 338 339 340 340 339 338 336 334 332 331 326 321 315 308 302 295 289 285 277 272 269 267 264 260 257 260 255 252 250 251 241
43 43 44 46 45 47 50 52 45 41 39 39 39 37 36 33 28 23 18 15 13 8 3 359 359 357 357 355 353 350 347 345 345 343 340 337 334 334 335 336 335 334 332 331 329 327 326 326 321 315 308 301 295 289 283 279 275 272 269 267 261 254 251 253 250 247 247 251 246
39 36 33 32 30 30 31 30 32 34 36 38 38 35 31 27 23 19 15 11 3 357 353 353 354 353 351 351 349 346 343 341 340 338 335 333 331 330 330 329 327 326 325 323 321 320 319 318 314 309 304 300 293 286 282 280 282 283 282 280 276 269 261 257 254 250 248 251 253
35 29 22 15 13 13 12 13 19 26 32 36 35 30 25 20 17 13 8 2 358 355 353 353 352 350 347 346 343 341 338 336 334 332 331 329 327 326 324 322 320 319 317 316 315 314 311 309 307 305 303 302 300 297 297 299 301 302 301 299 297 295 290 283 278 271 265 262 261
32 26 20 14 12 11 12 14 21 27 31 32 29 23 18 14 11 7 3 360 357 353 350 348 345 343 341 340 337 334 332 331 330 329 328 325 323 322 319 318 317 316 314 313 312 310 307 304 302 301 300 301 300 301 302 303 302 300 299 297 296 294 292 289 285 278 273 269 267
30 25 20 18 15 14 16 20 27 31 32 29 24 17 12 9 6 3 1 357 352 347 345 343 340 339 339 337 334 331 330 330 329 329 328 327 326 324 323 322 322 320 318 316 312 308 304 301 299 297 295 295 294 292 292 293 292 291 290 289 287 284 280 277 273 269 267 265 266
31 26 23 21 17 16 18 23 29 32 32 27 19 13 8 5 2 359 355 350 347 346 345 340 340 342 341 338 334 331 331 333 334 334 334 333 331 330 328 327 325 322 319 316 311 306 302 298 296 293 291 289 286 284 284 284 285 285 286 286 286 285 282 278 271 265 260 258 257
32 28 25 23 18 18 20 24 26 28 26 22 15 10 5 1 357 353 350 351 352 350 346 341 344 345 344 340 335 334 335 337 336 335 333 332 331 330 328 326 323 320 317 314 310 306 301 298 295 293 291 289 286 283 282 281 281 282 284 286 287 287 285 280 274 269 266 269 273
31 28 25 22 19 19 21 22 22 21 20 16 11 6 2 357 352 351 352 357 358 354 349 346 348 348 345 340 337 336 336 337 336 335 333 332 330 329 327 324 321 318 315 313 310 307 303 300 298 297 295 293 290 287 283 280 279 280 282 284 285 285 284 283 283 286 291 294 294
29 25 21 19 18 19 20 19 17 17 15 11 7 3 360 354 351 353 358 2 2 358 353 349 348 346 341 336 334 334 335 335 335 334 332 330 328 326 324 320 318 315 313 311 311 309 307 304 302 300 299 297 294 290 285 280 277 277 279 283 285 284 282 280 281 282 284 284 283
26 22 18 16 16 17 17 16 15 14 12 8 5 2 359 355 354 357 2 5 2 357 351 346 344 339 334 330 329 330 332 334 334 333 331 328 325 322 319 316 315 313 312 311 311 310 308 305 304 303 301 300 298 295 290 283 278 276 278 283 284 284 282 280 280 281 282 281 279
22 18 16 15 15 17 17 16 15 13 11 8 4 2 360 357 356 360 3 3 358 352 346 341 337 332 328 326 327 330 332 334 333 330 327 323 319 317 314 312 311 310 310 309 308 307 306 304 302 302 301 300 299 297 295 290 285 284 284 286 287 287 287 287 285 283 280 278 276
19 16 15 16 16 17 16 15 14 12 10 7 3 2 1 358 358 360 360 357 352 346 341 337 333 329 327 327 330 332 333 333 330 326 322 318 315 313 312 310 309 308 307 307 306 304 302 301 300 298 297 296 295 294 293 291 289 288 287 285 285 284 283 282 279 276 273 271 270
18 16 16 17 17 16 15 14 12 10 7 4 1 1 360 358 358 357 355 351 346 341 337 333 331 329 329 329 332 332 332 329 325 322 318 315 313 312 311 310 309 308 308 308 307 305 303 300 298 295 293 291 289 287 286 284 283 281 279 277 275 274 273 273 272 270 269 268 267
16 15 15 16 16 15 13 11 10 7 4 1 359 358 357 355 353 352 348 344 340 336 333 330 329 328 327 327 328 327 326 324 320 317 314 312 312 312 311 310 311 312 314 314 312 310 308 304 301 298 294 290 286 282 279 276 275 273 272 272 271 270 269 269 268 269 269 269 267
14 13 13 14 13 11 10 8 7 4 1 358 355 352 350 348 347 345 342 338 336 334 331 328 326 325 323 322 321 321 321 319 317 315 314 314 315 316 316 316 318 320 321 321 318 316 314 311 308 305 302 298 293 287 281 277 275 276 278 280 281 279 277 275 278 281 285 285 283
11 10 9 7 6 7 7 6 4 1 356 352 349 346 344 341 341 340 338 335 333 331 329 326 323 321 319 317 317 317 318 320 321 321 321 322 323 323 324 324 326 325 324 322 319 317 315 313 311 310 308 307 304 300 297 293 294 298 302 304 303 299 297 298 306 312 316 316 318
7 4 1 358 360 3 5 3 360 356 351 347 343 341 339 338 338 337 335 332 331 329 327 323 319 317 315 314 315 316 319 325 328 328 328 328 327 327 327 328 327 325 322 319 316 313 311 308 307 306 306 307 307 307 307 307 308 309 308 305 300 297 299 303 307 308 307 306 305
359 355 351 349 353 358 2 360 356 351 347 343 340 338 338 338 337 335 332 330 329 327 324 320 316 312 310 309 312 318 325 332 333 331 329 327 326 325 325 325 323 320 316 313 310 306 303 300 299 299 300 301 302 302 302 302 301 299 296 291 286 285 288 293 296 298 298 297 294
348 343 340 339 349 357 360 356 352 348 344 340 338 337 337 337 334 331 329 328 327 325 322 317 312 307 303 302 313 325 333 335 331 328 325 323 321 320 320 320 317 315 312 310 306 302 299 297 296 296 296 297 297 297 297 297 296 295 293 290 287 284 283 284 286 287 288 288 285
340 336 333 335 352 357 357 352 349 346 343 339 337 336 335 334 331 328 326 325 324 323 320 316 309 302 299 305 324 335 337 333 328 324 322 320 318 317 316 315 313 311 309 308 307 306 305 303 301 299 297 296 295 295 294 294 294 293 292 290 287 284 280 276 275 276 277 278 276
337 333 334 345 356 357 354 349 347 343 340 335 334 333 332 329 327 325 324 323 323 323 320 314 305 300 302 321 335 337 333 328 324 321 319 318 317 315 314 313 312 311 310 308 308 309 309 308 306 303 300 297 294 292 291 290 289 288 287 286 284 282 279 275 272 272 275 278 278
337 337 342 353 357 354 349 344 341 337 334 331 331 330 328 326 323 322 322 322 324 324 322 315 309 314 327 337 336 332 328 324 321 319 318 317 316 316 315 315 314 313 311 309 310 310 310 309 307 305 301 297 294 291 289 287 285 283 282 281 280 279 279 277 276 275 276 278 280
340 343 348 354 354 348 342 335 333 331 329 328 327 326 324 322 322 322 322 322 325 325 324 320 324 331 337 336 331 327 324 321 319 317 316 315 316 317 318 318 317 315 312 311 311 311 310 309 307 306 303 299 294 290 286 284 281 279 277 277 276 275 275 275 275 275 274 274 275
339 342 348 352 347 340 334 330 328 325 323 323 324 323 323 323 323 323 324 325 328 329 330 330 335 337 336 329 325 322 320 318 318 316 316 315 317 319 320 320 319 316 313 313 313 312 311 309 307 306 304 301 296 290 285 283 281 280 278 277 276 275 274 274 275 276 276 276 275
335 339 345 345 337 332 330 327 322 317 316 319 322 324 325 326 325 325 326 329 332 333 334 335 335 332 327 324 321 320 318 318 317 316 317 318 320 321 321 321 319 316 314 313 312 311 310 308 307 306 305 304 302 298 294 290 290 290 289 288 286 283 280 278 278 279 279 278 277
334 336 336 331 327 326 324 320 312 310 314 321 326 327 328 327 327 327 329 331 332 332 331 331 329 326 323 321 320 320 320 319 318 319 320 321 322 322 322 321 319 316 313 313 312 310 309 309 308 307 307 307 305 303 301 300 301 301 302 301 298 293 288 284 281 279 277 276 275
332 329 323 318 318 318 317 312 308 311 318 326 329 331 331 329 327 327 328 330 328 326 325 327 325 323 321 320 320 320 319 318 319 321 322 323 323 322 321 319 317 314 312 312 311 310 310 310 310 310 309 309 308 306 303 302 301 301 300 299 296 293 288 284 280 276 273 271 270
327 322 314 309 311 313 314 312 312 316 323 329 332 333 332 328 326 327 327 328 326 325 325 328 327 325 323 322 321 321 320 319 320 322 323 323 322 320 319 318 316 313 311 311 311 312 312 313 313 312 311 311 309 307 303 300 297 294 291 289 286 284 281 278 276 273 270 268 266
323 319 310 303 307 311 315 317 317 322 328 333 334 334 332 329 330 330 329 328 326 325 327 329 329 328 325 324 322 321 320 319 319 320 321 320 320 318 317 317 313 311 311 312 313 314 315 315 314 313 313 312 311 308 304 299 293 288 284 281 278 275 273 272 271 271 270 269 269
324 320 311 303 306 312 317 320 319 326 332 336 335 335 334 332 332 330 328 327 325 325 326 328 327 324 322 320 320 319 319 319 319 319 319 318 318 317 317 316 311 311 312 314 315 316 317 317 316 315 314 314 313 309 303 296 288 282 279 276 274 272 271 270 270 271 271 273 274
323 320 313 307 309 315 320 322 324 329 334 337 335 334 333 332 329 326 323 322 323 325 326 327 324 321 318 318 317 318 318 318 317 317 316 316 317 317 316 314 309 311 314 316 318 318 318 318 317 316 316 316 313 306 297 290 285 281 279 277 276 275 274 273 273 274 275 276 276
321 320 315 310 312 318 323 326 329 332 335 335 333 332 330 329 325 321 319 320 324 327 328 327 324 321 320 320 320 319 319 317 317 316 316 316 316 316 315 313 310 312 316 318 319 319 319 319 318 318 317 316 310 301 293 287 284 284 284 286 287 288 288 287 287 286 285 284 282
320 319 314 310 315 321 327 331 333 334 333 331 328 327 326 325 321 319 318 323 326 329 329 327 325 323 322 322 321 319 317 316 316 316 316 316 316 315 314 313 312 314 317 319 319 320 320 320 319 319 318 315 308 301 296 294 296 300 303 307 307 307 305 302 298 294 291 287 283
322 319 313 311 318 326 332 336 335 332 329 325 323 322 322 321 319 319 321 326 328 329 329 328 326 324 322 321 320 318 316 315 316 316 316 316 315 314 314 315 315 316 318 319 320 321 321 321 320 320 319 315 312 310 310 315 320 323 322 319 313 308 302 296 292 287 282 278 277
324 320 315 315 323 330 335 337 333 328 324 321 320 320 320 319 318 320 323 326 326 325 326 327 325 323 321 320 320 318 317 315 316 316 315 315 314 315 317 318 318 317 317 320 321 322 322 322 321 320 320 318 320 325 330 334 330 325 318 309 302 295 290 285 281 278 276 274 278
326 323 322 325 331 335 336 335 328 323 320 319 319 318 317 316 316 319 323 325 324 323 323 323 322 321 320 321 320 318 317 316 316 316 315 314 314 317 320 320 318 317 317 320 322 323 323 323 322 322 322 324 333 340 341 335 325 317 309 301 296 293 290 288 286 285 283 281 283
334 334 334 335 337 338 336 332 325 321 319 319 316 313 312 314 316 320 324 326 325 323 322 321 321 320 319 320 319 318 317 316 316 316 315 314 314 318 320 319 318 317 318 320 322 324 324 324 322 324 327 335 343 346 340 330 319 311 305 301 301 302 305 307 306 304 301 299 296